Jaipur, India

11:06 PM IST on April 24, 2018 (GMT +0530)
Jaipur

Weather History for VIJP - April, 2014

Change the Weather History Date:

Thursday, April 3, 2014

  Actual Average Record
Temperature  
Mean Temperature 82 °F -  
Max Temperature 93 °F - - ()
Min Temperature 71 °F - - ()
Cooling Degree Days 17    
Growing Degree Days 32 (Base 50)    
Moisture  
Dew Point 46 °F    
Average Humidity 27    
Maximum Humidity 53    
Minimum Humidity 8    
Precipitation  
Precipitation 0.00 in - - ()
Sea Level Pressure  
Sea Level Pressure 29.88 in    
Wind  
Wind Speed 6 mph ()    
Max Wind Speed 12 mph    
Max Gust Speed -    
Visibility 2.3 miles    
Events      
T = Trace of Precipitation, MM = Missing Value Source: Averaged Metar Reports

Daily Weather History Graph

Daily Weather History Graph

Search for Another Location

Airport or City:

Astronomy

Apr. 03, 2014 Rise Set
Actual Time 6:15 AM IST 6:44 PM IST
Civil Twilight 5:52 AM IST 7:08 PM IST
Nautical Twilight 5:25 AM IST 7:35 PM IST
Astronomical Twilight 4:57 AM IST 8:03 PM IST
Moon 8:40 AM IST (4/3) 10:20 PM IST (4/3)
Length of Visible Light 13h 15m
Length of Day
12h 28m
Waxing Crescent, 14% of the Moon is Illuminated
Apr 3
Waxing Crescent
Apr 7
First Quarter
Apr 15
Full
Apr 22
Last Quarter
Apr 29
New

Hourly Weather History & Observations

Time (IST) Temp. Dew Point Humidity Pressure Visibility Wind Dir Wind Speed Gust Speed Precip Events Conditions
12:00 AM 84.2 °F 42.8 °F 23% 29.83 in 1.9 mi NNW 6.9 mph - N/A   Haze
2:00 AM 78.8 °F 48.2 °F 34% 29.80 in 1.9 mi Variable 5.8 mph - N/A   Haze
2:30 AM 80 °F 49 °F 23% 29.75 in 1 mi NNE 6.9 mph - -   Haze
3:00 AM 78.8 °F 51.8 °F 39% 29.80 in 1.9 mi NE 8.1 mph - N/A   Haze
4:00 AM 77.0 °F 51.8 °F 41% 29.83 in 1.9 mi NE 6.9 mph - N/A   Haze
5:30 AM 75 °F 53 °F 36% 29.88 in 1 mi ENE 4.6 mph - -   Haze
6:00 AM 73.4 °F 55.4 °F 53% 29.86 in 1.9 mi ENE 10.4 mph - N/A   Haze
7:00 AM 73.4 °F 55.4 °F 53% 29.89 in 1.9 mi NE 6.9 mph - N/A   Haze
8:00 AM 73.4 °F 55.4 °F 53% 29.92 in 1.9 mi East 10.4 mph - N/A   Haze
8:30 AM 76 °F 56 °F 40% 29.88 in 1 mi East 11.5 mph - -   Haze
9:00 AM 77.0 °F 51.8 °F 41% 29.95 in 2.2 mi ESE 9.2 mph - N/A   Haze
9:30 AM 78.8 °F 51.8 °F 39% 29.98 in 2.2 mi SE 8.1 mph - N/A   Haze
10:00 AM 80.6 °F 50.0 °F 34% 29.98 in 2.5 mi SE 8.1 mph - N/A   Haze
11:00 AM 80.6 °F 50.0 °F 34% 29.98 in 2.5 mi Variable 4.6 mph - N/A   Haze
11:30 AM 85 °F 53 °F 23% 29.89 in 2 mi SE 4.6 mph - -   Haze
1:00 PM 86.0 °F 46.4 °F 25% 29.95 in 3.1 mi West 6.9 mph - N/A   Haze
2:00 PM 89.6 °F 44.6 °F 21% 29.92 in 3.1 mi Variable 3.5 mph - N/A   Haze
2:30 PM 90 °F 44 °F 12% 29.83 in 2 mi West 5.8 mph - -   Haze
3:00 PM 91.4 °F 41.0 °F 17% 29.89 in 3.1 mi Variable 5.8 mph - N/A   Haze
4:00 PM 91.4 °F 39.2 °F 16% 29.86 in 3.1 mi NW 6.9 mph - N/A   Haze
5:00 PM 91.4 °F 39.2 °F 16% 29.86 in 3.1 mi West 9.2 mph - N/A   Haze
5:30 PM 91 °F 38 °F 8% 29.77 in 2 mi NE 5.8 mph - -   Haze
5:30 PM 91.4 °F 37.4 °F 15% 29.86 in 3.1 mi Variable 6.9 mph - N/A   Haze
6:00 PM 89.6 °F 37.4 °F 16% 29.86 in 3.1 mi Variable 5.8 mph - N/A   Haze
7:00 PM 87.8 °F 41.0 °F 19% 29.89 in 2.5 mi WNW 4.6 mph - N/A   Haze
8:00 PM 86.0 °F 39.2 °F 19% 29.89 in 2.5 mi Variable 5.8 mph - N/A   Haze
8:30 PM 86 °F 39 °F 11% 29.82 in 2 mi North 4.6 mph - -   Haze
9:00 PM 84.2 °F 39.2 °F 20% 29.92 in 2.5 mi NNE 5.8 mph - N/A   Haze
10:00 PM 82.4 °F 41.0 °F 23% 29.92 in 2.5 mi NNE 5.8 mph - N/A   Haze
11:00 PM 82.4 °F 41.0 °F 23% 29.95 in 2.5 mi NE 8.1 mph - N/A   Haze
11:30 PM 81 °F 45 °F 18% 29.86 in 2 mi NE 6.9 mph - -   Haze